Location: Besigheim
(48.9980°N, 9.1427°E)
Time: 17:24:55
(UTC+00:00)

SL-24 R/B - RUBIN 2 - Pass Details

Date: 21 February 2026
Orbit: 603 x 984 km, 64.6° (Epoch: 8 March)

Event Time Altitude Azimuth Distance (km) Brightness Sun altitude
Exits shadow 03:17:21 13° 2° (N) 1,792 6.1 -30.5°
Drops below altitude 10° 03:18:25 10° 15° (NNE) 1,986 6.5 -30.4°
Sets 03:21:32 0° 39° (NE) 2,870 7.8 -29.9°
